FENGYUN 1C DEB

Satellite information

Favourite Embed

Satellite Type and Status

DEBRISIN ORBIT

Key statistics

Satellite FENGYUN 1C DEB at a glance.

Uptime

9659

Days in orbit

Revolutions

≈ 14.3

Per day

Orbit

SSO

Sun Synchronous Orbit

Inclination

100.2

Latest

Satellite identification and parameters

Extended collection of information and parameters for FENGYUN 1C DEB.

Object identification

Identified? True

Debris? True

Object name: FENGYUN 1C DEB

International designator: 1999-025KC

Object number (NORAD): 29954

Object ID (CCSDS): 29954

Country: PEOPLES REPUBLIC OF CHINA (PRC)

Current information (Y/N): Y

RCS size: SMALL

Orbital parameters

Period: 100.429 minutes

Inclination: 100.1574 deg

SMA: 7157.046 km

Apoapsis: 833.022 km

Periapsis: 724.8 km

RAAN: 320.5881 deg

Eccentricy: 0.00756055

Argument of periapsis: 64.3349 deg

Mean anomaly: 296.5615 deg

Mean motion: 14.33844437 rev/day

Mean motion (dot): 0.00003808 rev/day2

B* drag term: 0.0013441963 1/REarth

Two-line elements (TLE)

Creation date: Oct. 19, 2025, 2:20 a.m.

Reference frame: TEME

Reference center: EARTH

Epoch: Oct. 18, 2025, 10:51 p.m. UTC

TLE line 0: 0 FENGYUN 1C DEB

TLE line 1: 1 29954U 99025KC 25291.95271264 .00003808 00000-0 13442-2 0 9994

TLE line 2: 2 29954 100.1574 320.5881 0075606 64.3349 296.5615 14.33844437974026

Live tracking on map

Real-time ground track for satellite FENGYUN 1C DEB.

In-orbit conjunctions

A list of the most updated potential collisions computed for object FENGYUN 1C DEB.

Target Orbit TCA Probability of collision Miss distance Type
IRIDIUM 36 LEO 2025-09-01 23:13:43 0.0005338412 501.0 (m) PAYLOAD
METEOR 1-20 LEO 2024-11-23 01:59:51 0.0001287088 503.0 (m) PAYLOAD

Associated space launch

Chinese polar orbiting meteorological satellite

FENGYUN 1C DEB was lifted into orbit during the mission ‘Long March 4B | Feng Yun 1C’, on board a Long March 4B space rocket.

The launch took place on May 10, 1999, 1:33 a.m. from Launch Complex 7.

For more information about the launch, click the button.

Launch to space Long March 4B | Feng Yun 1C
Long March 4B | Feng Yun 1C

Agency: N/A

Status: Launch Successful

Launch date: May 10, 1999, 1:33 a.m. UTC

Rocket: Long March 4B

Launch pad: Launch Complex 7

Location: Taiyuan Satellite Launch Center, People's Republic of China

...

Latest news about this satellite

There are no fresh news available about this satellite. Check back as we update our databases every day.


Newsletter sign-up

Weekly statistics, charts and insights to help you stay on top of the space industry.